Regional Weather Roundup
Issued by NWS Midland/Odessa, TX

Skip options and go directly to product.
Home | Oldest Version | Previous Version | Current Version | All | Graphics & Text | Save Text | Print | Product List | Glossary On

Skip product version selection by date and time.   
827
ASUS44 KMAF 282302
RWRMAF
MIDLAND AREA WEATHER ROUNDUP
NATIONAL WEATHER SERVICE MIDLAND TX
600 PM CDT MON JUL 28 2014

...IN SOUTHWEST TEXAS AND SOUTHEAST NEW MEXICO...

CITY           SKY/WX    TMP DP  RH WIND       PRES   REMARKS
ALPINE         CLOUDY    88  54  31 SE15      30.25F
ANDREWS        PTSUNNY   92  60  33 E18G32    30.16F
ARTESIA        MOSUNNY   91  55  29 SE14      30.16F
BIG SPRING     MOSUNNY   89  62  40 NE23G30   30.17S
CARLSBAD       PTSUNNY   97  53  22 E15G22    30.11F
DRYDEN           N/A    100  52  19 SE14      30.06F
FORT STOCKTON  MOSUNNY   96  53  23 E13G23    30.11F
GUAD PASS      MOSUNNY   85  52  32 NE18      30.30F
HOBBS          MOSUNNY   90  57  33 E18G24    30.20F
MARFA          MOSUNNY   82  57  42 SE13      30.25S
MIDLAND AIRPK  MOSUNNY   93  61  34 E18G25    30.14F
MIDLAND INTL   MOSUNNY   95  61  32 E21G29    30.12F
ODESSA         MOSUNNY   95  59  30 E15G25    30.14F
PECOS          SUNNY    100  53  21 E12G21    30.06F
PRESIDIO       FAIR      95  58  29 MISG      30.04S THUNDER
SEMINOLE       MOSUNNY   90  57  32 E13G20    30.19F
SNYDER         PTSUNNY   87  65  47 E18       30.17F
WINK           MOSUNNY   98  51  20 E12G22    30.07F
$$
...OTHER STATIONS IN TEXAS...

CITY           SKY/WX    TMP DP  RH WIND       PRES   REMARKS
ABILENE        PTSUNNY   90  64  42 E14       30.14F
AMARILLO       PTSUNNY   78  63  59 SE14      30.27F
AUSTIN         MOSUNNY   97  66  36 NE9       30.02F HX 100
BROWNSVILLE    MOSUNNY   91  73  55 S18G25    30.02F
CORPUS CHRISTI MOSUNNY   93  72  50 SE18      30.02F HX 101
DALLAS FTW     PTSUNNY   90  63  40 N17       30.08F
DEL RIO        SUNNY     99  59  26 E16       30.00F
EL PASO        PTSUNNY   92  56  29 E17       30.15F
HOUSTON INT    PTSUNNY   97  62  31 W7        30.01F
LUBBOCK        PTSUNNY   86  65  49 E14       30.22F
SAN ANGELO     SUNNY     99  58  25 E13       30.07F
SAN ANTONIO    MOSUNNY   96  66  37 SE12      30.04F
WACO           CLOUDY    82  70  66 NE8       30.05F
WICHITA FALLS  NOT AVBL
$$
...OTHER LOCATIONS IN NEW MEXICO...

CITY           SKY/WX    TMP DP  RH WIND       PRES   REMARKS
ALAMAGORDO     MOSUNNY   88  59  37 NW6       30.21F
ALBUQUERQUE    PTSUNNY   85  50  29 SW13      30.28F
CANNON AFB     PTSUNNY   83  63  50 E15G26    30.27F
CLOVIS         NOT AVBL
HOLLOMAN AFB   MOSUNNY   87  59  38 NW8       30.18F
ROSWELL        PTSUNNY   91  56  30 SE7G21    30.17F
RUIDOSO        CLOUDY    63  59  88 S9        30.44F
SANTA FE       MOSUNNY   80  48  32 S10       30.35F
TRUTH OR CONSE MOSUNNY   87  53  31 S13       30.23F
TUCUMCARI      MOSUNNY   82  62  50 SE15      30.26R
$$

USA.gov is the U.S. government's official web portal to all federal, state and local government web resources and services.